loading
|

STARLINK-32168, 60335

Orbit data source: Space-Track

STARLINK-32168, 60335 is a payload satellite owned by SpaceX/Seattle (US) in LEO that was launched on Fri, 02 Aug 2024 UTC via an FALCON 9 launch vehicle from the Air Force Eastern Test Range (AFETR). Payloads include a variety of satellites, spacecraft, and rockets equipped with specific instruments for various scientific and technological missions. These include communications satellites like Starlink; space stations such as the ISS; scientific satellites like the Hubble; Earth observation satellites from companies like Planet Labs, Umbra, and HawkEye 360; GPS; miniature CubeSats for education and research; and military/defense satellites.

Loading next visibility...
Loading greatness...
STARLINK-32168 details
Identifier
60335, 2024-136G
Orbit
LEO
Last TLE update8 hours ago
Origin
Flag of USSpaceX/Seattle (US)
ManufacturerSpaceX/Seattle
Mission statusOperational
MissionUnknown
Bus & MotorSTARLINK V2M, Unknown motor
Mass750 kg wet, ~700 kg dry
Launch date (UTC)
2024-08-02 (2 months ago)
Launch vehicle
FALCON 9
Launch site
Air Force Eastern Test Range (AFETR)
Object type
Payload
Rocket body
Debris
Radar Cross SectionLarge (>1 m²)

Expand to show TLE details & history

TLE from 8 hours ago
0 STARLINK-32168
1 60335U 24136G   24261.60418948  .00000924  00000-0  33085-4 0  9996
2 60335  53.1634  55.5493 0001015  77.2188 282.8930 15.39612686  7277
Epoch: 2024-09-17T14:30Z
Definitive object data (Epoch: 2024-09-17T14:30:01.971Z)
Latitude-0.00002°
Longitude-158.9754°
Altitude448.003 km
Speed7.645 km/s
True Right ascension03h 42m 11s
True Declination0° 00' 00"
Sunlit
Object was in full shadow at TLE epoch
Predictive object data (real-time)
Latitude-19.50262°
Longitude-175.78194°
Altitude452.801 km
Speed7.641 km/s
Apparent Right ascension02h 45m 44s
Apparent Declination-29° 14' 10"
Sunlit
Object is in full shadow
Predictive observer data (real-time)
Local Sidereal Time14:59:54
Azimuth16.307° NNE
Elevation-78.932°
Doppler factor1
Orbital elements
Apogee448.203 km
Perigee446.818 km
Semi-major axis6,825.648 km
Eccentricity0.0001015
Inclination53.1634°
RAAN55.5493°
Arg. of periapsis77.2188°
True anomaly282.88166°
Mean anomaly282.893°
Eccentric anomaly282.88733°
Mean motion3.84882 °/min
BSTAR0.000033085
Period93.54 mins
No data available

STARLINK-32168 Visibility forecast

Observer location: 39.9160978°, -105.1181434

STARLINK-32168 is not visible in the next 10 days
Span
Click to sort rows by Start time (UTC) header in descending order
Start Az.
Max El. time (UTC)
Max El. Az.
Max El.
End time (UTC)
End Az.